GFSCGP_850_thetae_069.txt.gz
Theta_e
315 316 316 317 317 317 316 317 319 319 318 318 318 319 319 319 319 319 318 318 318 320 321 320 319 319 321 324 316 315 316 318 333 335 334 337 342 337 327 325 330 331 331 328
316 316 316 315 316 316 316 317 317 317 317 317 318 318 318 319 319 318 318 318 318 318 318 319 318 318 322 319 315 315 314 315 317 326 333 332 336 345 342 336 332 335 337 337
316 316 315 315 315 315 315 316 317 317 318 318 317 318 318 318 318 317 317 317 317 317 317 317 317 319 320 320 316 314 314 315 314 316 326 332 331 342 345 341 338 331 332 341
316 316 315 314 314 315 316 316 316 316 317 318 318 318 319 318 318 317 317 317 317 317 316 316 318 318 318 319 320 321 314 314 313 315 316 318 329 334 337 341 343 338 334 334
316 316 315 314 314 315 315 316 316 317 317 317 317 317 317 318 318 317 317 317 318 319 318 317 317 317 317 318 319 321 317 313 313 313 314 315 319 327 330 335 343 340 341 335
316 316 316 315 315 315 315 315 316 316 316 316 317 317 317 318 318 318 317 316 316 316 318 318 317 317 316 317 318 320 318 323 315 317 313 313 314 319 322 329 332 335 342 345
317 317 316 316 315 315 315 315 316 317 317 318 318 317 317 317 317 317 318 315 314 315 317 317 317 317 317 317 318 320 320 322 321 322 325 326 320 315 315 315 321 331 334 337
317 317 317 318 315 315 316 317 316 320 320 319 317 317 317 316 316 315 314 314 315 316 317 317 317 317 318 317 317 319 321 323 324 324 325 326 326 326 326 326 325 329 329 331
321 317 316 316 316 316 316 317 317 318 318 318 318 319 318 316 315 315 314 315 317 316 316 316 316 316 318 318 318 319 321 321 321 324 326 328 328 327 327 324 324 330 331 328
317 317 316 316 316 316 316 316 318 318 317 317 317 317 317 317 317 315 316 316 316 316 315 315 315 315 316 317 318 319 320 320 320 320 323 326 328 329 329 328 327 321 323 326
316 318 317 315 317 317 316 315 317 317 321 322 320 318 317 317 316 317 316 316 316 316 316 316 316 316 316 316 317 318 319 319 320 320 320 322 326 328 330 330 330 330 325 318
315 317 318 315 315 316 316 317 319 321 320 319 318 317 316 316 317 317 316 316 316 316 316 316 316 316 316 316 316 316 316 317 319 319 319 319 321 324 327 330 332 332 332 328
316 317 318 316 316 317 317 316 316 316 318 320 321 320 317 317 317 316 316 316 316 316 316 316 316 316 316 316 315 315 315 317 317 317 317 318 319 321 324 326 330 333 335 336
312 315 315 316 315 315 315 316 315 315 320 317 317 316 316 317 317 317 316 316 316 316 316 316 315 315 316 315 315 315 315 315 315 316 316 317 318 320 322 324 328 331 332 336
312 313 313 313 313 312 312 312 313 315 316 316 315 315 316 316 317 316 315 315 316 315 316 316 315 315 315 315 314 314 314 314 315 315 315 316 316 318 321 323 326 329 331 336
312 315 313 314 313 313 314 313 313 313 313 314 314 314 314 314 314 315 315 317 317 316 315 315 316 316 315 315 315 314 314 314 314 314 314 315 316 317 319 322 325 328 331 337
313 314 314 316 313 314 314 313 313 313 314 313 313 313 315 314 315 317 316 317 316 315 315 315 315 315 315 315 314 314 313 313 313 313 313 314 316 317 319 323 326 328 330 337
312 312 313 314 313 314 313 315 315 315 315 315 316 316 317 316 316 316 316 316 314 314 314 314 314 314 313 312 312 311 311 311 312 313 313 314 315 317 319 323 325 330 328 338
313 313 316 315 315 314 314 316 316 317 315 314 315 315 316 315 315 314 314 314 314 314 313 312 312 311 311 311 311 309 309 310 311 311 313 314 315 318 320 323 326 329 329 338
312 312 314 315 318 316 315 314 315 315 314 317 317 316 315 314 316 316 314 314 312 312 312 311 310 310 310 309 309 310 310 309 310 311 313 315 317 320 322 325 328 327 337 337
314 313 314 314 315 314 315 316 314 316 316 315 313 313 313 314 314 313 311 311 311 311 310 310 309 309 310 309 309 308 309 310 311 311 313 315 319 321 323 325 326 335 336 340
316 316 316 316 317 318 315 314 316 316 313 313 313 313 312 312 311 311 311 310 310 309 310 309 308 309 309 307 307 308 309 310 313 313 315 318 320 321 323 326 326 335 335 336
315 317 319 315 317 315 313 313 313 312 312 311 310 310 310 309 309 309 309 309 308 308 308 308 307 308 308 308 308 309 311 312 313 316 318 319 322 323 326 325 330 335 336 338
313 312 315 314 313 313 311 310 311 309 310 309 308 308 308 307 307 306 306 306 307 307 307 307 308 308 308 308 310 311 313 316 317 316 314 321 323 325 326 329 335 337 337 338
312 313 310 311 311 309 309 308 309 309 309 307 307 308 306 305 305 305 305 306 306 306 306 306 307 307 308 310 311 312 316 317 318 321 322 322 325 326 327 333 334 336 338 339
307 308 308 309 306 306 308 306 306 307 308 307 307 305 304 304 304 304 304 304 305 305 305 305 306 307 308 309 312 314 317 320 319 320 322 325 325 327 332 333 334 336 336 335

GFSCGP_850_thetae_072.txt.gz
Theta_e
316 316 317 317 318 318 318 318 317 318 319 320 319 319 319 320 319 319 320 320 320 320 320 323 323 322 322 323 321 318 316 319 337 339 339 333 331 333 336 336 335 337 338 337
316 317 317 317 317 316 317 318 318 318 319 319 319 318 319 319 320 320 320 320 320 319 320 322 322 321 321 323 324 322 325 317 317 331 337 336 332 334 335 341 339 333 335 334
317 317 318 318 316 316 316 316 317 317 318 318 318 318 318 319 319 319 319 320 320 320 319 320 321 320 320 322 322 318 318 322 318 316 319 334 335 338 335 337 340 336 338 334
316 318 317 317 317 316 316 316 316 317 317 317 318 319 320 321 321 321 319 319 318 318 319 319 319 319 321 320 321 323 320 315 317 321 316 324 330 336 335 332 333 338 338 341
317 317 317 317 316 316 316 316 316 316 317 318 318 318 318 319 319 319 320 318 318 318 319 318 318 319 319 319 320 321 323 316 314 318 324 316 319 325 330 335 332 333 337 339
317 316 317 317 317 316 316 316 316 316 317 318 318 318 319 319 320 320 321 318 317 318 320 319 319 318 318 318 318 320 319 323 317 313 316 325 315 316 320 328 331 333 337 341
318 319 319 318 317 317 316 316 315 317 318 319 318 319 321 320 320 319 320 318 318 318 318 319 319 319 319 317 318 319 320 322 322 317 316 315 314 314 314 316 323 330 334 336
320 322 320 318 319 319 319 318 317 317 318 317 319 323 320 321 318 317 318 317 317 316 316 318 318 319 318 318 318 318 321 322 324 323 324 322 316 313 313 317 319 318 316 321
319 318 318 318 318 318 319 318 317 320 320 319 318 320 320 320 320 317 316 316 316 316 317 318 317 317 318 319 319 319 320 321 322 322 324 325 324 324 320 317 320 327 323 322
318 319 316 316 317 317 318 317 321 321 323 321 319 318 319 319 320 319 317 315 315 317 317 317 316 316 316 317 318 319 319 320 320 321 321 322 325 327 329 330 329 323 319 321
317 319 318 316 315 318 317 319 318 319 321 320 320 318 319 318 319 319 317 316 317 317 317 316 317 317 317 317 317 317 319 319 320 320 320 320 321 323 326 328 330 331 329 321
316 318 318 315 315 316 316 316 318 320 321 320 321 320 319 317 318 319 317 317 317 316 316 317 317 317 317 317 317 317 317 317 316 317 319 319 320 319 320 323 325 327 332 332
315 315 316 315 316 317 315 315 314 315 318 317 320 319 317 318 319 317 317 317 316 316 317 317 317 317 317 317 317 317 317 316 316 318 318 318 317 318 321 321 323 324 325 329
312 312 313 315 314 315 316 315 315 315 321 320 317 317 316 318 317 316 317 317 316 317 317 317 317 317 316 316 317 316 315 316 316 316 316 316 316 317 316 318 319 321 323 325
313 313 313 312 313 313 313 313 314 315 316 316 315 315 316 317 317 317 316 316 315 315 316 317 317 317 317 316 316 316 316 316 315 315 315 315 316 315 316 316 315 317 321 325
314 315 313 314 314 313 314 314 315 314 314 313 313 315 315 316 315 315 316 316 315 317 318 317 317 316 317 317 317 317 317 317 316 315 315 315 315 315 315 315 315 318 321 321
312 313 315 316 314 313 314 316 315 315 316 314 315 315 317 317 316 316 317 317 318 319 316 314 316 315 316 316 315 315 315 315 314 314 314 314 314 314 314 314 316 316 319 322
312 312 314 315 314 314 313 314 314 315 314 316 316 315 316 316 316 315 316 317 316 317 316 316 316 315 314 314 314 313 313 313 313 313 313 312 312 314 314 314 316 317 319 324
312 314 317 316 316 314 314 316 317 317 316 317 318 317 316 315 315 316 316 315 315 315 314 314 314 313 313 313 313 312 311 311 311 311 311 311 310 311 313 315 316 317 320 323
314 314 315 315 317 315 314 317 315 315 317 317 316 316 316 314 317 315 314 313 313 312 312 312 312 312 312 312 312 311 310 310 310 311 312 311 310 310 312 315 315 318 320 326
316 315 315 315 316 314 316 316 315 316 319 315 314 313 313 314 313 313 312 311 311 311 312 311 311 311 310 312 311 310 311 311 310 309 309 310 309 310 311 315 316 322 325 327
318 320 317 316 317 318 315 314 316 315 313 313 312 312 311 310 310 310 310 310 310 309 309 310 310 310 310 310 309 309 310 309 308 309 310 311 312 312 312 314 320 320 321 323
317 316 316 316 318 316 313 312 311 311 311 310 310 310 309 308 308 309 309 308 307 307 308 308 308 308 308 308 308 310 309 309 310 311 311 312 312 313 313 316 319 321 321 325
313 313 316 314 314 313 308 310 309 309 307 308 309 308 310 308 308 307 306 306 306 306 306 306 307 308 308 309 309 309 309 310 311 312 313 314 316 316 318 319 321 323 325 327
311 312 309 310 311 307 308 307 307 307 306 307 306 308 307 307 306 304 304 304 305 305 305 306 307 306 307 307 308 309 310 311 312 313 316 315 315 315 316 320 322 325 326 328
309 309 309 309 306 305 305 306 306 307 308 306 305 304 303 305 303 302 303 303 303 303 304 305 306 305 306 307 308 309 309 311 313 316 317 319 320 321 321 323 327 326 329 335

GFSCGP_850_thetae_075.txt.gz
Theta_e
314 312 311 312 313 314 314 315 315 316 317 316 315 316 316 317 318 317 318 318 320 321 320 320 323 323 322 322 321 321 320 322 337 334 332 332 332 336 344 343 336 341 343 343
313 312 314 315 316 316 315 314 313 315 316 316 315 316 316 317 318 318 318 318 320 320 320 320 322 323 322 322 321 320 319 317 329 341 339 335 333 333 335 334 333 334 333 337
313 315 316 317 316 316 315 314 314 315 315 315 314 315 315 316 318 318 318 318 319 319 319 319 323 322 321 320 320 319 317 317 317 334 345 343 335 340 338 339 338 337 334 336
314 314 316 316 316 315 314 315 315 315 314 314 314 314 314 316 315 316 317 317 317 320 319 319 321 322 320 320 320 319 319 317 316 319 327 340 336 331 333 334 338 337 339 335
314 314 314 315 316 316 315 315 314 315 314 313 314 314 314 315 315 315 315 318 318 319 319 319 321 320 320 320 320 320 320 320 320 317 319 321 322 321 323 323 336 338 336 334
314 315 315 315 318 318 318 317 313 313 312 312 313 314 315 315 315 316 317 318 319 319 319 319 318 318 319 319 319 319 320 319 319 317 315 323 325 322 321 321 322 334 337 332
315 315 317 318 319 318 318 318 319 312 311 314 314 315 315 316 318 318 317 318 318 318 319 319 318 318 318 318 318 317 317 318 316 317 316 317 317 319 320 322 323 323 334 336
318 318 317 319 318 318 318 319 320 321 315 316 317 316 316 318 319 318 318 318 319 319 319 319 319 318 318 318 317 317 318 320 321 321 317 321 323 318 318 320 316 318 325 333
316 317 317 318 317 316 318 320 318 319 318 320 318 317 317 317 318 319 317 317 317 316 315 319 319 318 319 318 318 318 319 322 323 323 323 322 321 319 318 315 315 318 317 316
316 317 317 317 317 316 317 316 318 319 321 321 318 317 316 318 318 317 317 316 316 317 317 317 317 316 316 317 318 318 319 319 319 319 321 321 321 324 326 328 329 328 325 321
316 317 317 315 315 314 313 316 317 317 319 321 321 316 318 317 316 317 317 317 316 317 317 316 316 316 316 316 316 316 317 318 319 320 320 320 320 320 321 325 329 329 328 329
317 316 317 317 314 314 315 315 316 317 320 318 319 317 316 317 316 316 316 316 316 317 317 316 316 316 317 317 317 317 318 319 320 318 318 320 320 320 319 319 320 322 324 325
315 313 311 311 311 314 314 315 313 314 315 317 319 314 316 317 317 316 315 316 316 316 316 316 316 317 317 317 317 317 317 317 316 316 316 320 319 319 318 317 319 320 322 322
312 311 311 311 311 311 315 316 314 314 313 313 316 315 314 317 316 315 315 316 316 316 316 315 316 317 317 317 317 317 317 317 316 316 316 316 316 316 316 316 316 316 316 317
310 312 312 313 313 312 312 312 311 313 314 315 314 316 314 313 315 314 315 316 315 315 316 315 316 317 317 317 316 316 316 316 315 315 315 316 315 315 315 315 315 315 314 314
310 311 312 313 312 312 313 313 313 314 314 314 315 315 314 314 315 314 314 317 315 315 315 318 316 316 317 317 317 317 317 317 317 316 315 315 315 314 315 315 315 314 314 313
309 310 311 311 312 312 312 311 315 313 314 315 315 313 314 314 314 314 315 317 315 315 316 316 315 315 315 315 315 315 314 314 315 315 315 314 314 314 314 314 314 313 312 312
309 310 310 311 311 314 311 314 316 318 316 316 316 317 315 315 315 314 315 314 313 314 314 314 314 314 314 314 313 313 313 313 312 312 312 312 313 313 313 312 312 312 314 314
309 310 310 308 309 313 313 316 317 316 316 315 315 314 313 313 312 312 315 313 313 313 313 313 313 312 312 312 312 311 312 313 312 312 311 311 311 310 310 311 311 311 311 310
313 311 309 309 311 310 316 315 313 315 314 313 313 313 312 311 311 310 312 310 310 311 311 311 311 311 311 311 311 312 312 312 311 311 311 310 310 310 310 311 311 311 312 313
314 313 313 313 311 313 314 314 312 315 315 311 310 310 310 311 310 310 309 309 309 310 310 310 309 309 309 310 311 312 312 312 311 310 310 310 310 310 309 309 310 310 309 310
315 315 316 314 316 317 311 311 312 311 310 309 308 307 308 308 308 307 308 309 308 308 307 307 306 306 307 308 309 309 309 309 309 309 309 309 309 310 310 311 311 312 311 310
314 314 314 314 311 312 308 308 308 308 308 307 307 307 307 307 307 306 307 306 305 306 306 305 305 306 306 306 306 307 308 308 308 309 310 309 311 311 311 311 312 313 313 313
312 310 310 308 311 308 306 307 306 307 306 306 306 306 307 305 304 304 304 303 305 304 304 304 305 305 306 307 308 308 308 308 309 310 310 311 312 312 313 312 313 313 313 314
310 310 308 307 308 306 307 305 305 304 305 306 306 306 305 304 303 303 302 302 303 302 302 303 305 304 305 306 306 306 307 307 308 309 310 312 312 313 315 316 316 316 315 316
309 308 308 307 306 305 305 304 304 305 306 306 305 304 300 302 301 302 301 301 301 301 301 302 302 302 303 305 306 305 306 307 309 310 310 311 313 314 315 315 315 316 317 319

GFSCGP_850_thetae_078.txt.gz
Theta_e
313 310 310 310 310 312 312 312 312 313 313 314 313 313 313 314 315 314 315 316 317 318 318 320 320 323 323 324 324 324 323 339 345 346 345 345 345 345 341 335 344 342 340 343
311 310 312 312 312 313 313 313 313 312 313 314 312 312 313 313 313 316 315 317 318 318 320 320 321 322 324 324 323 323 322 322 322 334 340 340 337 338 345 345 343 344 344 345
311 312 314 314 313 314 313 313 312 313 313 313 312 312 312 313 314 316 317 318 318 318 319 320 320 321 323 323 322 322 321 321 320 320 329 339 340 338 337 342 345 343 341 340
311 313 314 313 313 314 313 317 317 315 313 313 313 313 312 312 313 314 315 315 316 316 317 319 321 322 323 322 322 322 321 320 318 317 317 326 339 341 339 335 331 333 337 336
313 313 312 313 314 317 317 318 317 316 313 311 312 310 313 313 313 313 312 315 317 317 318 317 320 321 322 322 321 320 319 319 319 318 315 316 322 336 336 339 336 336 334 331
313 314 313 314 317 317 317 317 315 315 309 312 312 311 313 312 313 313 315 317 317 318 318 317 320 322 321 321 320 320 319 319 319 318 318 317 316 321 330 333 336 334 335 326
313 313 313 317 318 316 315 315 317 316 317 317 314 312 312 312 313 314 314 317 317 318 317 317 321 321 321 320 318 318 318 317 316 316 316 315 314 316 326 328 327 329 329 327
314 316 316 318 317 317 317 314 313 318 317 316 316 318 314 314 315 315 317 318 317 317 316 319 321 320 318 318 318 317 317 318 318 316 319 317 316 316 319 319 320 321 325 330
314 316 315 317 316 315 318 318 317 318 317 319 317 316 315 315 314 317 317 317 316 314 317 319 318 318 318 318 318 318 317 318 320 318 318 320 321 320 319 319 321 321 320 319
315 314 315 316 316 315 316 315 316 315 313 319 318 318 317 316 315 317 315 314 316 315 318 318 318 318 318 318 318 318 317 318 318 318 321 320 320 320 320 325 327 328 328 327
313 314 315 313 314 313 312 315 315 313 313 312 317 315 317 316 316 316 316 317 316 316 315 317 317 317 317 318 318 318 318 318 318 318 318 319 319 319 320 322 323 325 328 327
314 312 314 314 313 313 314 314 313 313 316 319 317 317 314 314 315 314 315 317 317 316 316 316 315 315 316 316 317 317 317 318 317 317 319 318 319 320 319 319 318 319 320 320
313 311 310 309 308 310 313 314 315 314 311 313 310 311 312 313 311 313 314 316 316 316 316 315 316 315 316 316 317 317 317 317 317 318 319 320 318 320 320 320 319 319 318 318
311 308 308 309 309 308 312 313 313 313 310 311 314 313 312 313 313 314 313 314 316 317 316 316 315 315 316 317 316 317 317 317 317 319 317 316 316 317 319 317 317 317 316 316
307 309 310 310 311 313 312 312 311 312 313 313 312 312 315 314 312 313 314 316 315 315 315 316 315 315 316 317 316 316 316 317 317 316 316 316 316 316 316 316 316 316 315 313
306 308 310 311 311 310 312 311 310 311 312 312 313 314 313 314 314 314 314 316 316 316 316 316 316 315 316 316 317 316 316 316 316 315 315 315 315 315 315 315 315 315 315 314
306 306 308 309 311 311 311 313 315 315 315 314 314 314 313 313 314 314 314 314 313 313 314 314 315 315 315 316 316 316 316 317 316 314 315 315 315 315 315 315 315 314 314 314
306 306 305 309 309 313 310 315 316 316 316 315 314 313 313 313 313 312 313 313 313 312 312 312 313 313 313 313 312 312 314 315 315 313 312 313 313 313 312 312 312 312 311 311
305 305 306 306 304 310 313 315 314 314 315 312 312 311 311 310 310 310 314 310 309 309 309 310 310 310 311 311 312 312 312 312 312 311 312 312 312 311 311 311 310 310 310 310
310 308 308 304 312 310 315 314 311 312 315 310 309 308 307 307 308 308 310 310 309 308 308 308 308 309 309 309 309 310 310 310 311 311 312 312 311 311 311 310 310 310 309 308
314 314 313 310 309 310 312 311 309 312 310 309 308 307 306 306 306 306 307 307 306 306 307 307 308 308 307 308 308 308 308 308 309 311 312 312 311 311 311 310 310 309 309 309
310 313 314 314 314 315 308 308 310 308 307 307 306 305 305 306 306 306 306 306 305 305 304 304 305 304 306 306 305 305 306 306 307 307 309 310 309 309 309 309 309 309 309 310
313 313 312 310 306 308 307 306 307 306 306 305 304 305 305 306 305 305 305 304 304 303 303 303 303 305 304 304 305 305 306 306 307 308 308 307 307 308 308 309 309 310 310 310
310 309 307 304 309 306 306 306 306 305 305 304 305 304 305 302 302 302 301 300 301 301 302 302 303 302 302 302 304 305 306 307 308 308 308 308 309 309 309 309 311 311 311 311
308 307 305 305 305 305 306 306 305 305 305 305 305 304 304 302 302 301 300 300 301 300 301 300 301 301 301 302 305 304 304 306 307 307 307 307 307 308 309 310 312 313 313 313
307 307 308 308 306 305 305 304 304 304 305 305 303 304 302 301 301 301 300 299 298 299 298 299 300 300 301 302 302 303 304 305 306 307 307 307 308 309 311 312 312 313 314 315

GFSCGP_850_thetae_081.txt.gz
Theta_e
311 309 308 308 308 310 310 310 310 311 312 311 311 311 311 312 313 312 314 315 316 315 317 317 319 320 325 326 326 326 327 327 330 342 344 343 341 342 344 342 334 338 340 335
309 309 309 310 310 310 310 311 311 311 312 310 310 311 310 310 311 313 314 315 316 316 315 317 318 318 321 324 325 326 326 326 326 337 343 344 343 344 346 345 341 340 341 340
309 311 312 312 312 312 311 311 312 312 313 311 311 312 311 312 312 314 316 316 316 316 317 318 318 319 319 320 324 325 325 327 332 338 343 344 342 344 344 343 344 343 341 341
310 311 311 311 312 311 312 314 316 317 314 313 312 314 312 311 310 312 314 315 315 315 315 317 321 320 320 321 323 324 325 324 327 336 340 345 344 343 342 338 336 342 342 341
312 312 311 312 312 315 314 316 316 316 314 310 311 309 314 311 311 310 311 314 315 316 316 316 317 319 320 321 324 324 324 322 321 321 319 318 318 324 336 340 339 338 339 339
312 313 311 311 313 316 316 316 315 314 310 314 313 312 315 313 312 311 311 314 314 314 316 317 317 317 319 322 325 323 321 320 319 319 318 317 316 315 317 327 337 337 337 336
312 312 312 316 316 315 313 312 313 314 313 316 314 314 312 312 312 311 311 312 315 315 317 317 317 317 317 323 323 321 320 320 319 319 318 318 317 316 316 316 319 329 328 334
313 314 315 317 316 316 315 313 313 316 317 316 314 315 313 312 313 314 314 314 316 316 316 317 317 317 317 323 322 320 319 318 318 317 316 316 315 315 315 315 318 322 322 325
313 315 315 316 315 314 316 315 313 314 314 314 314 314 313 313 314 315 315 314 315 315 316 316 315 317 318 322 320 319 317 317 316 316 316 316 317 316 314 316 317 320 321 320
312 313 314 315 315 313 314 313 313 311 318 318 313 315 316 314 315 314 315 315 315 316 315 316 317 318 322 320 318 317 317 317 317 316 316 317 318 319 318 321 321 321 323 322
312 311 313 313 313 311 311 314 312 312 314 318 313 312 313 317 316 314 313 314 316 315 315 315 316 316 317 318 318 317 317 318 317 318 318 317 319 320 319 319 323 325 325 328
312 312 313 313 311 312 311 311 311 308 310 315 312 313 312 312 312 313 312 313 315 316 316 316 317 315 315 316 317 317 317 317 317 316 317 317 317 317 319 319 319 319 319 321
313 311 313 311 308 308 312 313 312 311 310 313 313 312 310 310 311 312 312 313 314 315 315 316 316 316 316 315 316 317 317 317 316 316 317 318 318 318 319 320 319 319 318 318
312 308 310 312 310 307 309 311 312 311 311 312 312 312 311 311 312 312 312 313 315 314 315 316 316 316 315 316 316 316 316 317 317 318 318 318 318 319 319 319 320 320 319 318
307 309 308 308 309 309 310 311 311 310 311 312 312 311 311 312 311 312 313 314 315 315 315 315 315 316 315 315 316 316 316 316 317 318 318 318 318 319 316 317 319 319 317 316
305 308 308 309 310 309 310 310 310 310 310 310 311 311 312 313 312 313 313 312 314 313 314 315 315 315 315 315 316 315 316 316 316 318 318 318 317 316 316 317 316 315 315 315
305 305 307 308 310 310 310 310 314 314 314 315 315 314 313 312 312 312 312 311 312 313 312 311 311 313 314 314 315 316 316 316 315 315 316 316 315 315 315 316 315 315 315 314
304 304 303 307 307 312 308 314 314 314 315 314 314 314 312 311 310 308 307 308 312 310 310 310 309 309 309 311 312 312 313 313 314 314 314 314 314 314 315 315 314 314 315 314
303 302 303 305 304 308 310 315 314 313 312 311 311 310 309 308 307 306 306 308 312 310 309 309 308 307 308 309 310 310 310 311 312 312 312 312 312 312 312 312 312 311 311 310
307 305 306 303 310 309 311 312 311 311 312 310 309 308 306 305 305 304 304 305 305 305 305 306 306 305 306 307 308 308 309 309 309 309 311 311 311 311 312 312 311 310 310 310
311 312 308 305 311 310 310 309 308 311 309 306 306 306 305 305 305 305 304 305 305 305 305 306 305 304 305 304 304 305 305 306 308 308 308 308 309 309 310 311 312 311 311 310
311 311 311 313 313 310 308 307 308 307 307 306 305 305 305 305 305 305 305 303 302 303 306 305 303 303 303 303 303 304 304 304 305 305 306 306 306 306 309 311 311 311 311 310
312 312 305 309 305 305 307 306 306 306 305 305 305 305 304 304 304 304 304 303 302 302 302 301 300 300 301 302 302 303 305 304 304 305 305 306 307 308 308 309 309 309 308 308
309 307 310 307 306 306 306 306 306 306 305 304 305 305 305 305 303 303 303 301 301 301 301 300 299 301 301 301 301 302 302 303 303 304 305 306 306 306 307 307 307 308 308 309
307 306 305 304 303 305 306 306 305 304 304 304 304 304 304 303 304 303 303 301 300 300 300 299 299 300 300 301 300 301 301 302 304 305 307 308 308 308 308 307 308 308 308 309
306 306 307 308 305 304 304 304 304 303 303 303 303 303 304 302 302 301 302 298 299 299 300 299 297 298 298 299 300 300 301 302 304 304 304 305 306 307 307 307 307 308 309 311

GFSCGP_850_thetae_087.txt.gz
Theta_e
311 315 315 315 314 313 313 313 314 314 315 313 316 317 317 316 316 316 316 316 316 315 315 315 315 315 316 316 317 317 319 320 333 339 343 340 336 335 331 329 327 328 330 328
313 314 314 314 312 312 312 314 315 315 314 314 316 317 317 317 316 315 316 316 316 316 316 315 315 315 315 316 317 317 316 317 323 333 337 341 339 340 339 336 334 331 328 327
314 314 312 312 313 313 314 314 315 315 315 316 317 317 317 316 314 315 315 315 315 315 315 314 314 315 315 316 316 317 316 317 320 327 336 341 342 341 340 341 339 333 327 326
313 313 312 313 313 314 315 314 314 314 316 317 317 318 318 317 317 316 316 316 315 314 314 314 314 314 314 314 315 315 318 317 320 332 337 339 334 333 333 339 341 334 328 335
315 313 313 314 314 313 315 313 315 316 317 318 317 318 318 317 317 317 316 315 316 316 316 315 314 314 313 314 314 314 316 319 319 327 336 334 336 337 333 336 341 339 338 339
314 312 313 315 314 313 316 316 317 316 318 318 318 318 318 317 317 316 316 316 316 315 315 315 315 315 314 315 315 316 315 317 320 321 329 336 336 337 336 339 343 341 342 341
316 315 315 313 314 316 316 317 318 318 318 319 317 317 317 316 316 315 316 316 315 314 314 315 315 315 315 316 316 316 316 316 318 321 326 333 337 338 338 341 343 341 340 339
315 316 314 315 315 316 317 318 318 320 319 318 316 317 317 315 314 314 315 316 314 314 315 315 315 315 317 317 316 316 317 316 317 321 326 334 337 340 342 342 339 338 332 330
315 315 314 316 316 316 318 318 317 318 318 319 316 315 315 314 314 315 315 314 313 314 315 315 315 316 316 318 318 317 316 317 316 323 329 337 336 333 328 323 318 317 316 317
315 316 313 315 316 315 317 316 319 319 318 316 314 314 313 313 314 315 314 314 313 314 315 316 315 316 316 316 319 319 317 317 317 326 324 322 318 317 316 316 315 315 315 315
314 315 314 315 316 315 317 318 317 316 317 317 316 312 314 314 313 313 314 313 313 314 315 316 315 314 316 316 317 320 319 322 322 325 319 317 316 315 315 316 316 315 315 316
313 316 315 314 314 312 313 317 318 320 316 318 318 316 312 312 312 313 312 312 313 314 313 315 316 314 315 317 315 317 320 319 321 320 316 316 315 315 315 315 317 317 317 320
313 313 314 314 312 312 315 314 315 315 314 313 315 314 313 312 312 312 311 312 314 313 312 313 315 316 316 316 317 316 315 316 317 318 317 317 316 316 316 315 315 317 319 319
312 313 314 315 314 313 314 314 314 315 317 316 316 314 313 313 312 312 312 313 313 313 311 311 313 314 313 314 315 316 316 317 315 315 316 316 317 316 319 318 317 316 316 316
311 312 311 311 312 312 311 311 312 314 314 315 314 313 312 312 312 312 313 313 313 311 309 309 310 313 312 312 312 314 316 317 316 315 316 315 316 318 319 319 318 319 318 318
309 311 311 310 309 309 309 309 309 311 312 312 312 312 312 312 313 314 314 313 311 310 309 308 309 312 312 311 311 310 310 313 315 314 315 315 315 316 317 320 319 319 319 319
309 309 309 309 308 310 310 309 309 309 310 310 311 312 315 315 315 314 313 312 310 309 308 307 308 309 310 310 310 311 310 309 309 311 315 315 315 314 316 317 320 318 318 319
308 308 309 308 308 310 309 314 314 314 314 314 315 315 315 313 313 311 310 309 309 307 307 307 307 307 307 307 308 308 308 308 308 308 310 313 316 315 314 316 317 318 318 318
306 309 310 310 312 310 311 314 314 314 314 313 313 313 312 310 309 308 308 307 307 306 306 306 306 306 306 306 306 306 306 307 307 307 307 309 312 314 312 313 314 316 317 318
306 308 310 309 310 313 312 313 310 311 314 312 310 309 309 308 308 309 307 307 307 306 306 306 306 305 306 306 306 305 305 306 306 307 307 307 308 309 310 310 313 313 315 315
311 309 309 309 312 311 311 311 309 314 313 308 308 307 307 308 308 307 306 306 305 305 305 305 304 305 305 306 305 304 304 305 306 306 306 306 306 306 308 309 310 311 312 312
313 314 313 312 313 313 310 311 311 310 308 307 306 306 306 305 304 304 304 304 304 303 304 303 304 304 305 304 304 304 305 305 305 305 304 304 305 306 306 307 308 309 309 310
313 313 314 312 314 309 309 307 307 306 306 306 305 304 304 304 303 302 302 302 302 302 303 303 302 304 303 302 303 304 303 303 303 303 303 303 304 304 305 306 306 306 307 308
310 309 312 310 310 309 307 307 306 304 304 304 304 304 302 301 301 301 301 301 300 299 301 299 301 300 300 300 303 303 303 302 302 302 302 303 303 304 305 306 306 307 307 309
309 310 310 309 308 307 307 306 304 304 303 303 302 302 302 301 301 301 300 299 299 298 298 299 299 297 298 299 300 301 301 301 301 302 302 302 303 304 305 306 306 306 307 308
308 309 309 309 306 304 305 304 303 303 303 302 302 301 301 300 300 299 299 298 297 297 296 296 296 297 297 298 298 299 301 301 300 300 300 301 301 302 302 304 305 305 306 307

GFSCGP_850_thetae_093.txt.gz
Theta_e
318 320 320 319 319 320 320 319 320 320 320 320 321 321 321 321 321 321 321 321 321 321 320 320 320 320 321 322 323 324 328 331 328 343 347 350 351 352 352 352 349 347 347 346
321 320 320 320 320 319 319 319 319 320 320 321 321 321 322 322 321 321 321 321 320 320 320 320 321 321 321 321 321 321 324 326 324 333 342 344 349 349 350 350 351 349 349 348
320 321 320 319 319 319 320 320 320 320 321 321 321 321 321 322 321 321 321 320 320 320 321 321 321 321 321 321 321 321 320 322 323 329 331 339 347 348 346 348 352 350 348 349
320 320 320 318 319 320 320 320 319 319 320 320 322 323 324 324 324 323 323 322 321 322 321 320 320 320 320 320 321 321 320 320 321 324 328 328 333 343 343 344 347 349 349 348
319 318 318 319 319 319 318 319 320 320 321 322 322 323 324 324 325 325 323 323 322 321 320 319 319 319 319 319 320 321 321 322 321 319 319 327 329 331 338 343 344 346 349 349
319 319 319 319 319 319 319 320 320 321 322 323 324 325 325 325 325 325 324 322 321 319 318 319 318 318 319 319 320 321 323 324 324 322 324 326 320 325 338 339 341 347 347 348
318 319 320 319 319 320 319 321 322 324 325 326 326 326 326 325 324 323 323 321 319 318 318 318 318 317 318 319 320 321 322 323 325 326 324 326 328 324 321 340 342 342 347 347
321 322 320 320 320 320 321 322 324 328 327 326 325 327 326 325 323 322 321 319 318 318 318 317 317 316 317 318 319 319 321 322 324 326 327 326 327 331 336 335 344 344 345 347
320 322 321 320 320 321 321 322 322 324 325 327 325 325 325 325 324 321 318 317 318 317 316 316 315 316 317 317 318 320 321 322 324 325 327 327 327 332 333 338 341 340 347 338
320 322 321 321 320 320 320 321 322 325 329 328 325 326 325 323 322 321 319 317 316 315 316 315 315 316 316 317 318 319 320 321 324 326 328 328 328 331 334 335 339 341 340 343
319 320 323 322 322 321 321 322 321 322 323 328 327 324 323 321 321 320 319 317 315 316 315 315 316 317 316 317 318 319 320 322 322 324 328 330 332 333 336 339 339 341 341 339
318 319 323 321 320 321 321 320 320 328 328 326 330 328 323 322 320 317 316 316 316 316 315 315 317 317 316 316 318 318 320 321 322 321 324 326 329 332 333 335 339 337 337 339
319 321 324 322 322 320 320 320 319 320 321 323 327 324 321 319 320 318 317 317 316 315 315 316 317 316 315 315 317 317 318 319 321 321 321 322 323 327 330 331 331 332 333 332
314 319 322 323 324 322 322 320 319 320 325 323 323 321 321 321 321 318 316 316 315 315 316 317 317 316 315 315 315 316 317 317 318 321 321 321 321 323 325 326 330 328 328 328
315 319 318 317 318 318 318 317 318 318 318 320 319 319 319 318 317 316 315 315 316 316 316 316 316 316 315 314 314 314 316 316 316 317 321 320 317 319 320 324 329 329 323 328
316 319 318 318 317 317 317 316 316 316 316 317 316 316 316 315 314 315 317 317 316 316 316 315 315 314 314 314 314 313 314 314 315 316 316 320 318 316 316 319 323 323 326 324
316 316 319 321 317 317 317 315 315 315 315 314 314 316 317 317 317 317 316 316 314 313 313 312 313 313 313 313 313 313 313 313 313 314 315 316 318 315 315 315 317 322 325 326
313 315 318 317 316 318 316 315 314 315 316 317 317 317 317 316 315 314 313 313 312 312 312 312 311 311 311 312 313 312 312 312 312 312 313 314 316 315 314 314 316 317 323 323
311 314 317 319 318 316 314 316 317 317 317 316 318 317 315 314 313 313 312 311 311 309 308 307 307 307 307 307 308 310 310 310 311 312 312 312 313 316 315 314 313 316 316 321
315 313 314 317 319 318 318 317 315 315 316 317 315 314 314 312 315 314 311 309 309 308 307 306 305 304 304 304 305 307 307 309 309 310 311 312 312 313 315 317 315 315 315 318
316 316 319 317 319 316 316 315 314 316 318 314 313 312 311 312 311 308 308 307 306 305 304 304 301 301 303 302 302 303 304 306 307 309 310 311 311 312 313 316 317 314 315 315
318 317 317 317 318 317 315 315 316 315 312 311 311 310 309 308 307 307 306 305 304 303 302 301 301 301 301 302 301 304 303 303 306 306 308 309 310 311 312 313 315 314 314 314
316 316 318 317 317 315 313 313 312 311 310 310 309 308 307 307 306 305 305 303 302 301 300 299 299 298 298 299 300 300 302 305 304 304 307 308 309 309 311 312 313 315 315 315
314 313 315 314 314 314 313 312 311 310 309 308 307 306 306 305 304 304 303 301 299 298 297 297 296 296 296 297 299 300 301 302 303 303 305 306 307 308 310 310 311 312 314 315
312 312 313 313 313 312 312 311 309 308 307 306 306 305 304 304 303 302 299 297 296 295 295 295 295 295 295 296 297 299 301 302 303 305 305 304 307 307 307 308 309 311 312 314
311 312 314 315 312 310 310 309 308 307 306 306 305 303 304 303 301 298 297 295 294 294 294 294 294 295 295 296 297 299 300 300 302 302 304 304 306 306 306 307 308 309 310 311

GFSCGP_850_thetae_096.txt.gz
Theta_e
319 319 319 320 321 321 320 321 320 322 322 321 321 321 321 321 321 321 321 321 322 321 321 320 320 320 322 322 322 322 322 324 325 323 335 342 346 348 350 350 351 349 348 346
320 320 320 320 320 320 320 320 320 321 322 321 321 321 322 322 322 322 322 322 322 322 322 322 322 322 322 322 322 321 321 322 323 323 323 343 347 349 349 345 350 350 350 349
321 321 322 320 320 320 320 321 321 320 321 322 322 322 322 322 322 322 322 322 322 322 321 322 322 322 321 321 321 322 321 321 322 326 325 324 336 342 347 348 349 350 352 350
321 321 321 321 320 320 321 321 321 320 320 320 321 322 324 323 324 325 324 322 322 322 322 322 322 321 321 320 321 320 321 322 323 324 323 329 325 330 341 347 347 351 350 351
320 321 321 320 320 320 319 320 320 320 321 321 321 322 322 324 325 325 326 324 323 323 323 322 321 321 320 320 320 321 321 322 322 323 323 327 326 323 328 329 340 346 351 350
320 319 320 320 320 320 320 319 320 320 321 323 322 323 323 325 326 327 326 324 324 322 321 319 320 320 319 319 319 319 320 322 323 323 323 326 327 326 325 324 337 333 346 349
318 319 320 320 320 320 320 320 321 322 323 324 323 324 326 329 327 326 325 324 323 321 320 320 319 319 318 318 317 319 319 320 321 321 324 324 326 327 329 330 322 328 342 343
322 323 320 319 319 320 320 321 323 326 327 326 326 326 326 327 326 325 323 323 322 320 320 319 318 317 317 317 317 318 318 319 321 322 322 326 325 325 327 330 332 328 326 334
322 322 321 322 322 322 321 321 322 324 325 328 326 325 326 326 326 326 324 322 319 319 319 318 317 317 316 316 317 317 317 319 321 322 324 326 328 330 328 327 331 332 337 333
320 323 322 322 322 323 321 321 322 323 332 329 325 325 326 326 325 323 323 321 319 318 317 317 317 316 316 317 318 317 319 320 321 323 322 322 324 325 331 333 327 330 332 338
321 323 323 321 323 324 324 322 322 323 325 329 329 325 326 324 323 323 323 321 319 317 317 316 316 316 317 317 317 317 318 319 320 321 320 322 322 325 326 331 333 334 332 336
319 322 323 321 320 321 322 324 323 328 328 328 329 329 325 326 323 323 320 318 318 317 317 317 316 316 317 317 317 316 317 318 319 320 321 323 322 323 324 327 329 326 328 332
321 322 324 322 322 321 322 322 322 322 324 323 325 324 322 323 322 321 321 321 320 318 318 317 316 317 318 317 317 316 316 317 318 318 319 320 322 321 322 323 323 318 329 331
315 320 322 323 323 323 323 323 322 322 324 324 323 322 321 321 322 322 320 318 317 317 317 317 318 318 317 317 317 317 316 316 316 317 318 317 318 322 319 321 322 324 326 329
318 319 318 318 318 318 319 319 319 321 321 322 320 320 320 321 321 319 316 318 318 318 318 317 317 317 317 317 316 316 315 315 314 315 317 316 317 319 319 319 319 320 322 325
317 320 318 318 317 317 318 318 318 319 318 318 318 318 318 316 317 318 318 317 316 316 316 315 314 314 315 314 313 314 314 315 315 314 315 314 314 317 318 316 317 319 318 317
316 317 318 319 317 319 321 319 318 318 318 317 317 318 318 319 318 316 316 315 315 314 314 313 313 312 311 310 309 309 309 311 313 314 314 314 314 314 317 317 315 317 316 318
315 314 316 320 318 320 318 317 317 317 316 316 318 318 318 317 315 314 314 313 313 312 311 311 311 310 309 308 308 307 308 309 310 312 313 313 314 313 313 317 316 316 315 318
314 315 316 318 320 318 317 318 319 318 318 318 317 316 315 314 313 313 312 312 310 310 309 309 308 307 306 305 304 304 305 305 305 308 309 311 312 313 313 316 316 314 314 317
315 314 314 317 321 321 319 318 316 316 316 316 315 314 314 312 314 314 310 309 309 308 307 307 305 304 303 302 302 303 302 303 306 305 305 308 310 312 312 314 315 315 314 314
317 315 315 315 316 316 317 317 315 316 317 314 313 312 311 312 311 309 308 308 307 307 305 304 303 301 301 301 300 301 302 303 303 304 304 306 308 310 311 312 314 315 315 314
317 319 319 318 321 320 315 316 317 315 313 312 311 310 309 308 308 308 307 306 306 304 302 300 299 298 298 298 299 298 299 300 301 302 304 304 305 307 310 312 313 315 316 315
320 318 319 318 318 316 314 314 313 312 311 310 309 308 308 308 307 306 306 304 302 299 299 297 297 296 296 297 296 296 297 298 300 301 301 304 303 306 308 310 312 314 315 312
315 314 316 315 315 315 314 313 312 310 310 309 308 307 307 306 305 305 303 300 298 297 296 295 295 295 295 295 296 296 297 298 299 302 301 302 305 304 306 308 311 313 314 313
313 313 314 314 314 313 312 311 310 310 308 307 308 307 304 305 304 302 299 298 296 295 294 294 294 294 295 295 295 296 297 298 299 301 302 303 304 304 306 308 309 312 313 313
312 314 316 316 311 311 311 310 309 307 307 308 306 304 304 303 301 298 297 295 294 293 293 293 294 294 295 295 296 296 297 298 299 301 301 304 304 305 305 306 308 310 312 312

GFSCGP_850_thetae_102.txt.gz
Theta_e
318 314 314 315 314 315 315 316 316 317 316 316 316 316 317 316 318 317 319 319 319 319 320 320 320 320 320 323 322 323 323 322 322 322 322 321 320 325 340 341 339 342 343 345
313 314 314 315 316 317 317 316 316 316 316 316 316 317 314 315 315 317 318 319 319 320 320 320 320 321 322 323 323 322 322 322 322 321 321 321 320 320 320 322 331 339 343 344
313 315 317 317 317 317 316 316 316 317 318 317 317 315 317 317 318 319 319 320 320 320 320 319 321 322 322 322 322 322 321 321 320 320 320 320 320 320 320 320 320 322 325 336
314 315 317 318 318 317 315 316 317 318 317 315 316 314 314 316 318 317 319 320 319 320 320 320 322 321 321 321 320 320 320 320 320 320 320 320 321 321 321 321 321 321 322 325
316 317 317 317 317 316 317 317 317 318 317 316 315 314 313 317 317 316 316 323 324 322 320 321 321 321 320 320 320 319 319 320 320 320 319 319 320 321 320 320 319 319 320 321
316 317 317 316 317 317 317 317 314 313 312 314 314 316 314 316 317 317 320 320 322 319 321 321 320 320 320 319 319 319 319 318 318 318 317 317 317 318 318 320 321 322 323 321
317 317 318 318 317 315 315 312 313 314 313 314 315 317 314 316 319 321 317 318 319 320 320 320 320 319 319 319 318 318 318 317 317 316 317 317 317 317 318 321 321 321 321 323
317 318 320 320 320 319 319 314 313 317 316 316 320 321 321 322 321 319 319 318 319 319 319 319 319 319 318 318 318 317 317 316 316 316 316 316 317 318 321 321 322 322 320 318
316 318 319 321 320 320 320 320 315 318 319 319 319 319 318 321 321 320 319 317 318 319 319 319 319 319 319 318 317 317 316 316 316 316 317 317 318 321 322 322 322 321 318 318
318 321 320 321 320 320 321 320 322 317 321 323 321 322 321 323 321 319 318 319 319 318 318 318 318 318 317 316 316 316 316 316 316 317 317 318 318 319 320 319 318 317 315 315
317 317 319 319 320 320 322 320 320 319 318 319 321 319 320 322 320 320 318 319 320 320 319 319 319 317 316 315 316 316 317 317 317 317 317 316 316 317 318 318 318 316 315 315
317 316 319 320 317 318 317 320 322 325 323 317 315 318 319 319 319 318 318 319 318 317 317 317 317 317 317 317 317 317 317 317 317 317 318 319 319 318 318 317 317 317 316 315
315 317 318 317 318 318 320 320 321 323 323 326 325 323 318 318 316 314 315 315 314 315 315 315 315 315 316 316 317 317 317 316 316 316 316 316 316 315 316 318 317 317 316 316
315 315 317 317 318 317 320 318 319 321 322 325 324 321 319 316 313 313 314 313 314 313 313 312 312 312 312 312 312 312 313 313 314 313 313 314 314 314 314 315 316 318 316 315
312 315 316 316 317 317 317 316 315 317 320 321 319 319 318 314 314 313 312 313 312 312 311 310 310 309 309 309 308 308 308 308 308 308 308 308 308 311 311 312 313 314 314 314
311 314 315 316 316 315 315 315 315 316 315 315 317 318 315 314 312 311 311 311 310 309 309 308 308 307 306 306 307 307 307 307 307 306 306 306 306 306 306 306 309 311 311 313
312 312 313 314 313 313 312 313 315 316 316 315 316 315 312 311 310 310 310 309 308 307 307 307 306 306 307 307 307 306 305 304 304 304 304 304 304 304 303 304 305 306 308 310
312 312 312 312 311 314 311 317 317 317 315 314 313 312 311 310 310 310 309 308 307 307 307 306 306 307 306 305 304 303 302 301 300 300 300 301 301 302 303 304 304 305 307 309
310 311 312 308 309 312 316 318 317 317 315 312 311 311 310 309 308 308 309 307 307 306 306 306 305 304 303 302 301 299 298 298 298 298 299 300 302 300 300 302 306 307 307 308
312 312 312 310 311 314 317 317 316 317 315 312 310 309 308 307 307 306 307 306 305 305 304 303 302 300 299 298 297 297 297 296 296 297 297 298 299 301 299 302 303 303 304 305
315 314 315 313 313 311 314 315 314 317 313 311 310 308 307 305 306 306 305 304 304 304 302 300 298 298 297 296 296 296 296 296 296 296 296 297 297 298 298 301 303 303 305 305
316 315 315 315 315 314 314 314 315 312 310 309 307 308 307 305 304 304 304 303 302 300 298 298 296 296 296 296 295 295 295 296 296 296 296 297 297 298 299 300 301 304 304 306
317 315 314 313 316 313 313 312 310 310 310 308 307 305 303 303 304 303 302 301 298 297 296 295 295 295 297 296 294 294 296 297 297 297 297 297 297 298 299 300 302 303 304 306
314 314 313 313 314 314 312 311 309 309 307 306 303 303 304 303 301 300 299 298 295 294 294 294 294 295 296 295 295 295 296 297 298 298 297 297 298 299 300 301 302 302 303 305
310 313 313 313 312 312 311 310 308 306 305 303 304 303 302 299 298 297 295 293 293 293 293 293 293 294 294 295 296 296 295 296 298 299 298 298 299 300 301 302 304 303 303 305
310 311 310 313 310 310 309 307 305 303 303 302 301 300 299 298 295 294 293 292 292 292 292 292 294 293 294 296 297 296 297 298 299 299 298 299 299 300 301 303 303 304 304 305